Teterow

Germany     53˚46′12″N   12˚34′24″E
temp.,
°C
wind,
m/s
gust,
m/s
humid.,
%
clouds,
%
prec.,
mm/h
press.,
hPa
HPBL,
m
28 november, sat
sat2801:00+1˚n019238 0.0 102322
04:00+1˚ene129320 0.0 102422
07:00+1˚ne129210 0.0 102422
10:00+3˚ne12862 0.0 102583
13:00+5˚e36771 0.0 1025583
16:00+2˚e238234 0.0 102623
19:00+2˚n238248 0.0 102637
22:00+3˚n2281100 0.0 102748
29 november, sun
sun2901:00+3˚nne227999 0.0 102727
04:00+2˚n238460 0.0 102649
07:00+3˚n257776 0.0 1026117
10:00+4˚n257499 0.0 1026262
13:00+5˚nnw346779 0.0 1026907
16:00+4˚n357378 0.0 1025313
19:00+2˚nnw358272 0.0 1025165
22:00+3˚nw347694 0.0 1025128
30 november, mon
mon3001:00+2˚wnw357596 0.0 1025143
04:00w238255 0.0 102425
07:00+1˚w239141 0.0 102540
10:00+2˚w368496 0.0 1025357
13:00+3˚wsw477496 0.0 1024471
16:00+1˚sw488615 0.0 1022221
19:00+1˚ssw489154 0.0 1021262
22:00+1˚ssw51085100 0.0 1020313
1 december, tue
tue101:00+1˚ssw4981100 0.0 1018352
04:00+1˚s51079100 0.0 1016378
07:00+1˚s5986100 0.1 1016370
10:00+1˚sse3686100 0.3 1017329
13:00+2˚se3485100 0.4 1018277
16:00+2˚ese2389100 0.1 1019203
19:00+2˚se2491100 0.1 1021213
22:00+1˚se228786 0.0 102167
2 december, wed
wed201:00se238874 0.0 102249
04:00−1˚se23904 0.0 102240
07:00−1˚sse129110 0.0 102221
10:00+1˚sse238235 0.0 1022122
13:00+3˚ssw237745 0.0 1021266
16:00+1˚s2290100 0.0 102022
19:00+1˚s249497 0.0 102085
22:00+2˚s3690100 0.0 1019211